Weather History for Fredericksburg, TX

Change the Weather History Date:

Tuesday, January 1, 2013

  Actual Average (KSAT) Record (KSAT)
Temperature  
Mean Temperature 45 °F 51 °F  
Max Temperature 54 °F 62 °F 83 °F (2006)
Min Temperature 36 °F 40 °F 19 °F (1928)
Degree Days  
Heating Degree Days 20 14  
Month to date heating degree days 14  
Since 1 July heating degree days 616  
Cooling Degree Days 0 0  
Month to date cooling degree days 0  
Year to date cooling degree days 0  
Moisture  
Dew Point 43 °F    
Average Humidity 92    
Maximum Humidity 100    
Minimum Humidity 73    
Precipitation  
Precipitation 0.08 in 0.06 in 1.78 in (1944)
Month to date precipitation 0.06  
Year to date precipitation 0.06  
Snow  
Snow 0.00 in - - ()
Month to date snowfall  
Since 1 July snowfall  
Snow Depth -    
Sea Level Pressure  
Sea Level Pressure 30.12 in    
Wind  
Wind Speed 5 mph (North)    
Max Wind Speed 14 mph    
Max Gust Speed 18 mph    
Visibility 8 miles    
Events Rain    
T = Trace of Precipitation, MM = Missing Value Source: NWS Daily Summary

Daily Weather History Graph

Daily Weather History Graph

Search for Another Location

Airport:

Trip Planner

Search our weather history database for the weather conditions in past years. The results will help you decide how hot, cold, wet, or windy it might be!

Date:

Astronomy

Jan. 01, 2013 Rise Set
Actual Time 7:32 AM CST 5:46 PM CST
Civil Twilight 7:05 AM CST 6:13 PM CST
Nautical Twilight 6:36 AM CST 6:42 PM CST
Astronomical Twilight 6:06 AM CST 7:12 PM CST
Moon 9:58 PM CST (1/1) 10:03 AM CST (1/1)
Length of Visible Light 11h 07m
Length of Day
10h 14m
Waning Gibbous, 83% of the Moon is Illuminated
Jan 1
Waning Gibbous
Jan 4
Last Quarter
Jan 11
New
Jan 18
First Quarter
Jan 26
Full

Hourly Weather History & Observations

Time (CST) Temp. Windchill Dew Point Humidity Pressure Visibility Wind Dir Wind Speed Gust Speed Precip Events Conditions
12:15 AM 54.7 °F - 54.7 °F 100% 29.99 in 4.0 mi Calm Calm - 0.01 in   Drizzle
12:35 AM 54.5 °F - 54.5 °F 100% 30.00 in 7.0 mi Calm Calm - 0.01 in   Light Drizzle
12:55 AM 54.1 °F - 54.1 °F 100% 29.99 in 7.0 mi Calm Calm - 0.02 in Rain Light Rain
1:15 AM 54.1 °F - 54.1 °F 100% 29.99 in 7.0 mi Calm Calm - N/A   Overcast
1:35 AM 54.0 °F - 54.0 °F 100% 29.99 in 5.0 mi Calm Calm - N/A   Light Drizzle
1:55 AM 53.8 °F - 53.8 °F 100% 29.99 in 10.0 mi WNW 3.5 mph - N/A Rain Rain
2:15 AM 53.4 °F - 53.4 °F 100% 29.99 in 10.0 mi Calm Calm - N/A   Overcast
2:35 AM 53.6 °F - 53.6 °F 100% 30.00 in 10.0 mi Calm Calm - N/A   Overcast
2:55 AM 52.7 °F - 52.2 °F 98% 30.01 in 10.0 mi NE 5.8 mph - 0.05 in Rain Light Rain
3:15 AM 52.7 °F - 49.6 °F 89% 30.02 in 10.0 mi NNW 5.8 mph - N/A   Mostly Cloudy
3:35 AM 52.2 °F - 51.8 °F 99% 30.02 in 10.0 mi East 3.5 mph - N/A Rain Light Rain
3:55 AM 51.8 °F - 50.9 °F 97% 30.02 in 10.0 mi North 3.5 mph - N/A   Overcast
4:15 AM 52.2 °F - 52.2 °F 100% 30.03 in 10.0 mi NNW 5.8 mph - N/A Rain Light Rain
4:35 AM 51.4 °F - 49.5 °F 93% 30.03 in 10.0 mi NNW 5.8 mph - 0.01 in   Light Drizzle
4:55 AM 50.9 °F - 47.5 °F 88% 30.03 in 10.0 mi NNW 9.2 mph - 0.01 in   Light Drizzle
5:15 AM 49.8 °F - 46.8 °F 89% 30.04 in 10.0 mi NNW 8.1 mph - N/A   Light Drizzle
5:35 AM 49.1 °F - 47.3 °F 93% 30.05 in 10.0 mi North 8.1 mph - N/A Rain Light Rain
5:55 AM 48.6 °F - 46.9 °F 94% 30.06 in 10.0 mi NNW 8.1 mph - N/A   Light Drizzle
6:15 AM 48.2 °F - 47.3 °F 97% 30.04 in 10.0 mi North 8.1 mph - N/A   Overcast
6:35 AM 48.2 °F - 48.2 °F 100% 30.06 in 10.0 mi NNW 8.1 mph - N/A   Overcast
6:55 AM 48.2 °F - 48.2 °F 100% 30.07 in 10.0 mi North 10.4 mph - N/A Rain Light Rain
7:15 AM 47.8 °F - 47.8 °F 100% 30.09 in 10.0 mi North 6.9 mph - N/A   Overcast
7:35 AM 48.2 °F - 48.2 °F 100% 30.09 in 10.0 mi NNE 8.1 mph - N/A Rain Light Rain
7:55 AM 47.8 °F - 47.8 °F 100% 30.10 in 7.0 mi NE 10.4 mph - N/A   Overcast
8:15 AM 47.1 °F - 47.1 °F 100% 30.11 in 3.0 mi NNE 9.2 mph - N/A   Overcast
8:35 AM 46.9 °F - 46.9 °F 100% 30.12 in 3.0 mi North 11.5 mph - N/A   Overcast
8:55 AM 46.6 °F - 46.6 °F 100% 30.13 in 1.0 mi North 10.4 mph - N/A   Overcast
9:15 AM 46.4 °F 41.9 °F 46.4 °F 100% 30.14 in 1.8 mi North 9.2 mph - N/A   Overcast
9:35 AM 46.0 °F 40.6 °F 46.0 °F 100% 30.16 in 4.0 mi North 11.5 mph 17.3 mph N/A   Overcast
9:55 AM 46.8 °F - 46.8 °F 100% 30.17 in 7.0 mi North 9.2 mph - N/A   Overcast
10:15 AM 48.0 °F - 46.9 °F 96% 30.17 in 10.0 mi North 9.2 mph - N/A   Overcast
10:35 AM 48.2 °F - 46.6 °F 94% 30.17 in 10.0 mi North 10.4 mph - N/A   Overcast
10:55 AM 47.3 °F - 46.6 °F 97% 30.18 in 7.0 mi North 12.7 mph - N/A   Overcast
11:15 AM 46.4 °F 41.1 °F 46.4 °F 100% 30.18 in 5.0 mi North 11.5 mph - N/A   Overcast
11:35 AM 45.1 °F 39.5 °F 45.1 °F 100% 30.17 in 5.0 mi North 11.5 mph - N/A   Overcast
12:15 PM 42.6 °F 35.6 °F 42.6 °F 100% 30.18 in 1.5 mi North 13.8 mph 18.4 mph N/A   Overcast
12:35 PM 41.5 °F 34.2 °F 41.5 °F 100% 30.17 in 1.8 mi North 13.8 mph - N/A   Overcast
12:55 PM 41.2 °F 34.1 °F 41.2 °F 100% 30.16 in 4.0 mi North 12.7 mph - N/A   Overcast
1:15 PM 41.4 °F 36.2 °F 41.4 °F 100% 30.16 in 4.0 mi North 8.1 mph - N/A   Overcast
1:35 PM 41.9 °F 35.4 °F 41.7 °F 99% 30.14 in 7.0 mi NNW 11.5 mph - N/A   Overcast
1:55 PM 42.3 °F 36.3 °F 41.2 °F 96% 30.14 in 10.0 mi North 10.4 mph - N/A   Overcast
2:15 PM 42.8 °F 37.0 °F 40.6 °F 92% 30.13 in 10.0 mi North 10.4 mph - N/A   Overcast
2:35 PM 43.0 °F 37.7 °F 39.9 °F 89% 30.14 in 10.0 mi North 9.2 mph - N/A   Overcast
2:55 PM 44.1 °F 39.0 °F 39.9 °F 85% 30.14 in 10.0 mi North 9.2 mph - N/A   Scattered Clouds
3:15 PM 44.8 °F 39.4 °F 39.7 °F 82% 30.14 in 10.0 mi North 10.4 mph - N/A   Clear
3:35 PM 45.5 °F 40.8 °F 39.4 °F 79% 30.15 in 10.0 mi North 9.2 mph - N/A   Clear
3:55 PM 46.2 °F 41.2 °F 38.5 °F 74% 30.14 in 10.0 mi North 10.4 mph - N/A   Clear
4:15 PM 45.9 °F 41.2 °F 37.6 °F 73% 30.16 in 10.0 mi North 9.2 mph - N/A   Clear
4:35 PM 46.0 °F 42.5 °F 38.3 °F 74% 30.16 in 10.0 mi North 6.9 mph - N/A   Clear
4:55 PM 45.5 °F 42.5 °F 38.1 °F 75% 30.16 in 10.0 mi NNE 5.8 mph - N/A   Clear
5:15 PM 44.2 °F 41.8 °F 37.9 °F 79% 30.16 in 10.0 mi NNE 4.6 mph - N/A   Clear
5:35 PM 43.2 °F 40.5 °F 37.4 °F 80% 30.17 in 10.0 mi NNE 4.6 mph - N/A   Clear
5:55 PM 42.4 °F 39.6 °F 37.0 °F 81% 30.17 in 10.0 mi NNE 4.6 mph - N/A   Clear
6:15 PM 41.4 °F 38.4 °F 36.5 °F 83% 30.17 in 10.0 mi North 4.6 mph - N/A   Clear
6:35 PM 41.0 °F - 35.8 °F 82% 30.18 in 10.0 mi Calm Calm - N/A   Clear
6:55 PM 40.8 °F 38.8 °F 36.0 °F 83% 30.18 in 10.0 mi NE 3.5 mph - N/A   Clear
7:15 PM 40.6 °F - 36.3 °F 85% 30.19 in 10.0 mi Calm Calm - N/A   Clear
7:35 PM 39.4 °F - 35.6 °F 86% 30.20 in 10.0 mi Calm Calm - N/A   Clear
7:55 PM 38.7 °F - 35.6 °F 89% 30.20 in 10.0 mi Calm Calm - N/A   Clear
8:15 PM 38.7 °F - 36.1 °F 91% 30.20 in 10.0 mi Calm Calm - N/A   Clear
8:35 PM 38.1 °F - 36.3 °F 93% 30.21 in 10.0 mi Calm Calm - N/A   Clear
8:55 PM 37.0 °F 34.5 °F 36.7 °F 99% 30.21 in 10.0 mi NNW 3.5 mph - N/A   Clear
9:15 PM 36.5 °F 33.9 °F 36.1 °F 99% 30.22 in 10.0 mi NNW 3.5 mph - N/A   Clear
9:35 PM 37.0 °F 33.3 °F 35.6 °F 95% 30.21 in 10.0 mi North 4.6 mph - N/A   Clear
9:55 PM 37.6 °F 32.3 °F 34.9 °F 90% 30.21 in 10.0 mi North 6.9 mph - N/A   Clear
10:35 PM 37.6 °F 31.6 °F 33.6 °F 86% 30.22 in 10.0 mi North 8.1 mph - N/A   Clear
10:55 PM 37.4 °F 30.8 °F 33.1 °F 84% 30.22 in 10.0 mi North 9.2 mph - N/A   Clear
11:15 PM 37.4 °F 30.8 °F 32.4 °F 82% 30.22 in 10.0 mi North 9.2 mph - N/A   Clear
11:35 PM 36.3 °F 30.8 °F 31.8 °F 84% 30.22 in 10.0 mi NNE 6.9 mph - N/A   Clear
11:55 PM 36.1 °F 31.4 °F 31.1 °F 82% 30.22 in 10.0 mi North 5.8 mph - N/A   Clear